Location: Franzen
(48.6167°N, 15.3833°E)
Time: 12:41:01
(UTC+00:00)

Cosmos 2084 Rocket - Pass Details

Date: 22 April 2021
Orbit: 524 x 656 km, 62.8° (Epoch: 16 May)

Event Time Altitude Azimuth Distance (km) Brightness Sun altitude
Rises 19:17:15 0° 203° (SSW) 2,643 6.7 -12.1°
Reaches altitude 10° 19:19:28 10° 196° (SSW) 1,762 5.7 -12.4°
Maximum altitude 19:23:13 43° 125° (SE) 754 3.5 -12.9°
Drops below altitude 10° 19:27:03 10° 53° (NE) 1,809 5.8 -13.4°
Sets 19:29:22 0° 47° (NE) 2,723 6.8 -13.7°
